15min,AgWx,beryljct,423,09APR2021:00:00:00,42.3,12.84,46.7,45.3,44.0,45.5,42.3,31,34,27,0.282,15.3,17.8,13.0,1.798,1.6,319,70,3.3,-0.00008,-0.00009,50.1,51.5,13,0,0,.,8.32,0.00,0.00
15min,AgWx,beryljct,423,09APR2021:00:15:00,42.2,12.82,39.0,40.7,44.2,46.3,40.3,34,48,25,0.358,17.4,22.4,12.7,0,2.9,216,49,7.8,0.00007,0.00013,49.8,51.5,13,0,0,.,8.32,0.00,0.00
15min,AgWx,beryljct,423,09APR2021:00:30:00,41.6,12.82,37.7,37.2,38.9,41.4,37.2,44,49,39,0.365,19.0,20.6,17.4,0.351,2.3,203,29,5.0,-0.00003,-0.00001,49.5,51.4,13,0,0,.,8.32,0.00,0.00
15min,AgWx,beryljct,423,09APR2021:00:45:00,40.4,12.81,35.7,36.4,37.9,40.2,36.0,45,52,38,0.368,18.4,20.3,16.2,1.315,3.5,103,42,6.3,0.00006,0.00010,49.2,51.4,13,0,0,.,8.32,0.00,0.00
15min,AgWx,beryljct,423,09APR2021:01:00:00,39.2,12.8,36.3,35.6,35.7,37.7,34.7,53,58,42,0.410,20.3,22.3,16.6,3.595,3.4,223,12,4.2,0.00002,0.00005,48.9,51.3,13,0,0,.,8.32,0.00,0.00
15min,AgWx,beryljct,423,09APR2021:01:15:00,38.1,12.8,35.4,35.0,35.3,36.6,34.0,60,64,57,0.438,22.9,24.4,21.2,2.061,2.0,241,0.3,3.7,-0.00008,-0.00009,48.7,51.2,13,0,0,.,8.33,0.00,0.00
15min,AgWx,beryljct,423,09APR2021:01:30:00,37.0,12.8,40.4,37.9,35.1,38.3,34.2,61,66,48,0.379,22.9,24.5,20.2,0.417,0.9,254,1.6,2.3,-0.00017,-0.00024,48.4,51.2,13,0,0,.,8.33,0.00,0.00
15min,AgWx,beryljct,423,09APR2021:01:45:00,36.5,12.79,36.5,37.2,39.2,42.2,36.1,43,51,36,0.315,18.5,20.9,16.0,2.521,1.8,161,39,5.4,-0.00007,-0.00007,48.2,51.1,13,0,0,.,8.33,0.00,0.00
15min,AgWx,beryljct,423,09APR2021:02:00:00,35.9,12.78,36.1,36.9,33.7,37.8,31.2,45,54,35,0.264,14.7,16.6,12.2,3.266,3.2,176,18,4.6,0.00004,0.00007,47.9,51.0,13,0,0,.,8.33,0.00,0.00
15min,AgWx,beryljct,423,09APR2021:02:15:00,35.9,12.76,42.4,42.1,40.2,42.1,36.3,32,36,30,0.277,12.8,13.9,11.3,0.395,2.5,187,11,3.6,0.00003,0.00008,47.6,50.9,13,0,0,.,8.33,0.00,0.00
15min,AgWx,beryljct,423,09APR2021:02:30:00,36.4,12.77,39.1,39.1,40.8,42.2,39.1,35,39,31,0.319,15.1,16.6,13.3,3.836,3.2,92,36,6.6,0.00008,0.00014,47.4,50.8,13,0,0,.,8.33,0.00,0.00
15min,AgWx,beryljct,423,09APR2021:02:45:00,36.7,12.75,37.6,37.6,37.5,39.0,36.9,44,47,39,0.353,17.4,18.8,16.4,7.125,5.8,68,5.8,8.2,0.00018,0.00024,47.2,50.7,13,0,0,.,8.33,0.00,0.00
15min,AgWx,beryljct,423,09APR2021:03:00:00,37.1,12.74,39.9,39.4,38.7,39.5,37.6,45,47,43,0.352,19.1,19.7,18.6,5.349,5.9,77,5.7,8.2,0.00018,0.00025,46.9,50.7,13,0,0,.,8.33,0.00,0.00
15min,AgWx,beryljct,423,09APR2021:03:15:00,37.4,12.73,40.0,39.5,39.3,39.6,38.9,43,45,42,0.356,18.8,19.2,18.4,4.165,4.3,85,7.3,6.3,0.00012,0.00018,46.7,50.5,13,0,0,.,8.33,0.00,0.00
15min,AgWx,beryljct,423,09APR2021:03:30:00,37.6,12.74,40.6,39.8,39.0,39.8,38.2,47,49,43,0.388,20.5,21.3,18.8,9.29,6.9,81,8.1,10.9,0.00020,0.00027,46.5,50.5,13,0,0,.,8.33,0.00,0.00
15min,AgWx,beryljct,423,09APR2021:03:45:00,38.0,12.73,39.3,39.2,39.5,40.1,39.2,48,49,46,0.393,21.2,21.5,20.9,8.42,7.7,70,6.8,10.2,0.00023,0.00029,46.2,50.4,13,0,0,.,8.33,0.00,0.00
15min,AgWx,beryljct,423,09APR2021:04:00:00,38.4,12.71,39.9,39.6,39.5,39.9,39.0,48,49,46,0.386,21.3,21.7,20.8,10.11,9.7,71,6.8,12.7,0.00027,0.00034,46.0,50.3,13,0,0,.,8.33,0.00,0.00
15min,AgWx,beryljct,423,09APR2021:04:15:00,38.7,12.71,39.2,38.7,39.1,39.6,38.7,47,48,46,0.380,20.7,21.1,20.2,9.05,10.0,69,6.5,12.1,0.00028,0.00034,45.8,50.2,13,0,0,.,8.33,0.00,0.00
15min,AgWx,beryljct,423,09APR2021:04:30:00,38.6,12.7,38.4,37.9,38.4,38.8,37.9,48,49,47,0.372,20.4,20.7,20.0,8.62,8.1,64,6.6,11.1,0.00023,0.00029,45.6,50.1,13,0,0,.,8.33,0.00,0.00
15min,AgWx,beryljct,423,09APR2021:04:45:00,38.2,12.7,37.1,37.0,37.5,38.0,36.9,49,50,48,0.371,20.1,20.4,19.9,5.283,6.3,69,5.7,8.4,0.00017,0.00022,45.5,50.0,13,0,0,.,8.33,0.00,0.00
15min,AgWx,beryljct,423,09APR2021:05:00:00,37.5,12.69,35.8,36.0,36.3,37.0,36.0,52,52,50,0.373,20.2,20.4,20.0,4.604,5.1,66,5.2,6.7,0.00011,0.00015,45.3,49.9,13,0,0,.,8.34,0.00,0.00
15min,AgWx,beryljct,423,09APR2021:05:15:00,36.7,12.69,36.3,36.3,35.8,36.3,35.4,53,54,52,0.378,20.3,20.6,20.1,5.722,4.5,64,8.3,6.9,0.00008,0.00012,45.1,49.8,13,0,0,.,8.34,0.00,0.00
15min,AgWx,beryljct,423,09APR2021:05:30:00,36.0,12.68,35.7,35.3,35.7,36.2,35.3,54,54,52,0.374,20.5,20.9,20.2,4.494,5.1,64,6.3,7.3,0.00039,0.00067,45.0,49.7,13,0,0,.,8.34,0.00,0.00
15min,AgWx,beryljct,423,09APR2021:05:45:00,35.5,12.67,35.5,35.5,35.5,35.8,35.2,52,54,51,0.363,19.6,20.2,19.2,4.932,4.4,71,7.3,7.3,0.00035,0.00061,44.8,49.6,13,0,0,.,8.33,0.00,0.00
15min,AgWx,beryljct,423,09APR2021:06:00:00,35.0,12.67,35.5,35.0,34.7,35.5,34.3,53,54,52,0.360,19.5,19.8,19.2,8.29,6.3,58,7.9,9.1,0.00044,0.00077,44.7,49.5,13,1,0,.,8.34,0.00,0.00
15min,AgWx,beryljct,423,09APR2021:06:15:00,34.7,12.66,34.7,34.4,34.5,35.2,33.9,53,54,52,0.351,19.0,19.4,18.5,5.437,6.0,41,8.6,8.6,0.00045,0.00078,44.5,49.4,13,7,0,.,8.34,0.00,0.00
15min,AgWx,beryljct,423,09APR2021:06:30:00,34.5,12.68,35.4,34.8,34.4,34.9,34.1,52,53,50,0.359,18.5,19.2,18.2,5.941,5.1,31,10,7.3,0.00050,0.00079,44.3,49.2,13,31,0,.,8.34,0.00,0.00
15min,AgWx,beryljct,423,09APR2021:06:45:00,34.8,12.72,36.4,35.9,35.2,35.9,34.8,52,53,51,0.361,19.4,19.6,19.1,6.248,5.8,33,8.6,8.1,0.00067,0.00101,44.2,49.2,13,71,0,.,8.34,0.00,0.00
15min,AgWx,beryljct,423,09APR2021:07:00:00,35.7,12.69,38.3,37.6,36.8,37.7,35.9,49,51,48,0.372,19.7,20.2,19.1,9.93,8.4,42,7.9,11.5,0.00095,0.00143,44.0,49.1,13,115,0,.,8.34,0.00,0.00
15min,AgWx,beryljct,423,09APR2021:07:15:00,37.2,12.75,39.0,38.6,38.2,38.6,37.7,48,49,45,0.358,20.1,20.8,19.2,8.22,8.2,51,7.9,10.9,0.00112,0.00164,43.8,49.0,13,161,0,.,8.34,0.00,0.00
15min,AgWx,beryljct,423,09APR2021:07:30:00,38.7,12.85,40.0,39.8,39.2,39.8,38.6,45,47,43,0.360,19.6,20.6,18.7,11.36,9.0,41,9.0,12.7,0.00136,0.00196,43.7,48.9,13,211,0,.,8.33,0.00,0.00
15min,AgWx,beryljct,423,09APR2021:07:45:00,40.3,13,42.3,41.7,40.7,41.7,39.7,43,45,41,0.375,19.8,20.9,18.7,10.08,9.5,37,8.3,12.6,0.00162,0.00229,43.6,48.8,13,261,0,.,8.34,0.00,0.00
15min,AgWx,beryljct,423,09APR2021:08:00:00,42.1,13.31,43.2,42.7,42.3,42.8,41.8,41,44,40,0.376,20.3,21.7,19.6,10.41,10.9,33,9.1,14.8,0.00192,0.00271,43.5,48.7,13,315,0,.,8.33,0.00,0.00
15min,AgWx,beryljct,423,09APR2021:08:15:00,43.6,13.82,43.9,43.4,43.2,43.6,42.6,39,41,37,0.364,20.1,21.1,18.8,10.35,11.1,28,11,13.8,0.00216,0.00300,43.4,48.6,13,366,0,.,8.33,0.00,0.00
15min,AgWx,beryljct,423,09APR2021:08:30:00,45.2,14.54,44.9,45.4,44.6,45.7,43.4,39,42,36,0.396,20.9,23.7,19.0,13.53,11.3,33,12,15.5,0.00242,0.00332,43.4,48.5,13,417,0,.,8.33,0.00,0.00
15min,AgWx,beryljct,423,09APR2021:08:45:00,46.7,14.53,44.4,45.7,45.3,46.0,44.7,36,39,35,0.383,20.2,21.6,18.9,17.23,13.5,28,11,18.2,0.00272,0.00378,43.4,48.4,13,473,0,.,8.33,0.00,0.00
15min,AgWx,beryljct,423,09APR2021:09:00:00,47.9,14.49,45.6,45.9,45.8,46.4,45.3,36,38,35,0.372,20.4,22.2,19.0,14.97,14.0,45,11,17.5,0.00293,0.00403,43.4,48.3,13,522,0,.,8.32,0.00,0.00
15min,AgWx,beryljct,423,09APR2021:09:15:00,49.0,14.45,47.3,47.4,46.5,47.7,45.8,35,38,33,0.381,20.4,22.6,19.1,15.08,13.7,45,10,17.7,0.00315,0.00429,43.6,48.2,13,570,0,.,8.32,0.00,0.00
15min,AgWx,beryljct,423,09APR2021:09:30:00,50.0,14.49,46.7,47.5,47.3,48.4,46.5,34,36,32,0.363,20.4,22.5,18.5,13.02,13.3,48,14,17.9,0.00338,0.00455,43.7,48.1,13,616,0,.,8.32,0.00,0.00
15min,AgWx,beryljct,423,09APR2021:09:45:00,51.0,14.49,47.9,48.3,47.9,48.7,47.1,33,36,31,0.402,20.5,22.9,18.6,9.86,12.7,51,9.4,17.5,0.00358,0.00476,43.9,48.0,13,660,0,.,8.32,0.00,0.00
15min,AgWx,beryljct,423,09APR2021:10:00:00,52.0,14.38,48.4,48.8,48.6,49.5,48.0,33,36,32,0.383,21.1,23.2,19.2,14.16,12.5,57,15,16.1,0.00378,0.00496,44.1,48.0,13,701,0,.,8.32,0.00,0.00
15min,AgWx,beryljct,423,09APR2021:10:15:00,52.8,14.38,50.5,49.8,49.2,50.0,48.3,33,36,30,0.407,21.2,23.7,18.8,17.43,13.0,59,11,17.4,0.00398,0.00523,44.4,47.9,13,739,0,.,8.32,0.00,0.00
15min,AgWx,beryljct,423,09APR2021:10:30:00,53.5,14,49.5,50.7,50.0,51.3,49.2,33,37,30,0.408,21.9,24.9,19.5,16.84,12.9,49,15,16.9,0.00417,0.00544,44.8,47.8,13,774,0,.,8.31,0.00,0.00
15min,AgWx,beryljct,423,09APR2021:10:45:00,54.1,13.95,50.7,50.5,50.6,51.8,50.0,31,34,29,0.379,21.2,24.4,19.4,12.47,13.3,45,11,18.1,0.00437,0.00572,45.2,47.7,13,806,0,.,8.31,0.00,0.00
15min,AgWx,beryljct,423,09APR2021:11:00:00,54.8,13.97,51.2,52.1,51.3,52.5,50.1,31,35,28,0.394,21.3,24.5,18.2,17.08,11.3,45,11,17.1,0.00453,0.00580,45.6,47.7,13,834,0,.,8.31,0.00,0.00
15min,AgWx,beryljct,423,09APR2021:11:15:00,55.5,13.93,54.5,53.1,51.9,53.1,51.1,30,34,27,0.472,21.3,25.7,18.2,7.41,11.9,49,16,16.8,0.00471,0.00606,46.1,47.6,13,859,0,.,8.31,0.00,0.00
15min,AgWx,beryljct,423,09APR2021:11:30:00,56.2,13.92,52.6,53.2,52.6,53.3,51.8,30,33,26,0.398,21.7,25.1,18.6,12.28,12.2,52,13,17.9,0.00485,0.00624,46.6,47.6,13,881,0,.,8.31,0.00,0.00
15min,AgWx,beryljct,423,09APR2021:11:45:00,56.9,13.97,54.4,54.3,53.5,54.9,52.3,29,34,25,0.383,22.0,26.8,18.5,13.42,11.5,45,18,18.2,0.00502,0.00640,47.1,47.6,13,898,0,.,8.31,0.00,0.00
15min,AgWx,beryljct,423,09APR2021:12:00:00,57.8,13.91,56.2,54.3,54.0,55.1,52.8,28,32,25,0.372,21.8,25.4,18.4,12.01,10.9,61,15,18.0,0.00512,0.00649,47.6,47.6,13,913,0,.,8.31,0.00,0.00
15min,AgWx,beryljct,423,09APR2021:12:15:00,58.5,13.88,54.3,55.5,54.8,55.8,54.1,27,32,25,0.406,21.5,25.8,18.9,12.01,10.8,55,17,16.1,0.00524,0.00664,48.2,47.6,13,922,0,.,8.30,0.00,0.00
15min,AgWx,beryljct,423,09APR2021:12:30:00,59.1,13.86,55.1,55.2,55.1,55.6,54.0,26,29,23,0.339,20.5,24.0,17.5,10.74,10.7,61,18,18.0,0.00531,0.00675,48.8,47.6,13,929,0,.,8.30,0.00,0.00
15min,AgWx,beryljct,423,09APR2021:12:45:00,59.5,13.94,57.4,56.5,56.2,57.3,55.3,23,28,19,0.314,19.1,24.0,14.8,8.46,11.0,38,26,14.8,0.00547,0.00700,49.4,47.6,13,929,0,.,8.30,0.00,0.00
15min,AgWx,beryljct,423,09APR2021:13:00:00,60.3,13.84,58.9,58.0,57.6,58.6,56.6,22,27,19,0.379,18.9,24.7,15.5,8.99,11.1,28,19,15.8,0.00563,0.00723,50.0,47.6,13,927,0,.,8.30,0.00,0.00
15min,AgWx,beryljct,423,09APR2021:13:15:00,61.4,13.84,57.9,57.6,58.2,59.1,57.6,22,27,18,0.329,19.6,24.9,13.9,12.41,12.8,40,18,17.2,0.00569,0.00744,50.7,47.7,13,920,0,.,8.30,0.00,0.00
15min,AgWx,beryljct,423,09APR2021:13:30:00,62.2,13.82,60.1,59.3,58.6,59.9,57.4,22,26,19,0.404,19.7,24.1,16.2,14.21,11.3,47,16,20.7,0.00566,0.00730,51.3,47.7,13,912,0,.,8.30,0.00,0.00
15min,AgWx,beryljct,423,09APR2021:13:45:00,63.0,13.79,59.9,59.5,58.9,59.5,58.5,20,24,17,0.396,18.0,22.6,14.6,8.59,10.5,54,14,16.2,0.00565,0.00727,51.9,47.8,13,900,0,.,8.29,0.00,0.00
15min,AgWx,beryljct,423,09APR2021:14:00:00,64.0,13.76,58.9,60.0,60.0,61.1,58.9,19,25,14,0.330,17.6,24.7,11.0,8.42,10.2,50,20,14.6,0.00566,0.00729,52.4,47.8,13,884,0,.,8.30,0.00,0.00
15min,AgWx,beryljct,423,09APR2021:14:15:00,64.7,13.74,59.4,60.5,60.1,61.3,59.2,17,21,14,0.304,14.6,20.3,10.9,8.37,9.9,47,17,15.9,0.00559,0.00723,53.0,48.0,13,864,0,.,8.29,0.00,0.00
15min,AgWx,beryljct,423,09APR2021:14:30:00,65.5,13.72,61.1,61.3,60.5,61.6,59.6,17,23,13,0.346,15.1,23.5,8.3,12.19,7.1,73,32,14.1,0.00535,0.00669,53.6,48.0,13,843,0,.,8.30,0.00,0.00
15min,AgWx,beryljct,423,09APR2021:14:45:00,66.2,13.69,61.5,61.0,61.3,62.1,60.4,17,22,13,0.281,16.3,22.2,9.7,5.042,8.9,71,20,14.2,0.00539,0.00695,54.1,48.2,13,817,0,.,8.29,0.00,0.00
15min,AgWx,beryljct,423,09APR2021:15:00:00,66.6,13.67,62.8,61.8,61.4,62.0,60.7,17,24,13,0.304,16.0,24.3,9.9,11.07,8.6,73,20,16.1,0.00508,0.00657,54.6,48.3,13,761,0,.,8.29,0.00,0.00
15min,AgWx,beryljct,423,09APR2021:15:15:00,67.0,13.73,64.3,61.7,61.8,62.3,61.2,15,19,12,0.324,13.3,19.9,8.5,6.029,9.5,45,21,15.0,0.00500,0.00664,55.1,48.4,13,719,0,.,8.29,0.00,0.00
15min,AgWx,beryljct,423,09APR2021:15:30:00,67.4,13.64,61.6,62.6,62.0,62.9,61.6,16,20,13,0.310,15.1,21.2,10.4,9.49,7.1,73,24,10.9,0.00456,0.00589,55.6,48.6,13,679,0,.,8.29,0.00,0.00
15min,AgWx,beryljct,423,09APR2021:15:45:00,67.8,13.64,63.3,62.9,62.4,63.4,61.8,16,22,11,0.316,14.9,22.8,7.2,8,7.3,69,26,13.9,0.00456,0.00594,56.0,48.7,13,668,0,.,8.29,0.00,0.00
15min,AgWx,beryljct,423,09APR2021:16:00:00,68.2,13.65,62.2,62.3,62.6,63.1,62.1,15,19,12,0.278,14.0,20.3,8.2,7.366,7.5,71,19,12.6,0.00440,0.00579,56.4,48.8,13,634,0,.,8.29,0.00,0.00
15min,AgWx,beryljct,423,09APR2021:16:15:00,68.3,13.64,62.0,62.7,62.5,63.3,62.0,15,20,11,0.228,13.3,20.8,6.3,8.02,6.9,45,18,11.5,0.00375,0.00503,56.8,49.0,13,533,0,.,8.29,0.00,0.00
15min,AgWx,beryljct,423,09APR2021:16:30:00,68.5,13.6,62.7,62.7,62.6,62.9,62.3,14,17,11,0.263,12.3,17.8,7.0,5.437,6.1,66,21,9.5,0.00374,0.00494,57.1,49.2,13,546,0,.,8.29,0.00,0.00
15min,AgWx,beryljct,423,09APR2021:16:45:00,68.6,13.6,63.6,63.2,62.9,63.6,62.5,14,21,10,0.244,13.2,22.5,5.8,5.459,6.7,57,27,11.3,0.00376,0.00503,57.3,49.3,13,534,0,.,8.29,0.00,0.00
15min,AgWx,beryljct,423,09APR2021:17:00:00,68.6,13.6,62.7,62.6,62.9,63.4,62.5,14,19,11,0.336,13.0,19.5,7.0,6.686,6.3,41,18,10.7,0.00316,0.00435,57.5,49.5,13,436,0,.,8.29,0.00,0.00
15min,AgWx,beryljct,423,09APR2021:17:15:00,67.9,13.66,63.5,63.0,62.5,63.0,61.9,15,18,11,0.344,13.5,18.9,7.1,0.373,4.1,58,20,9.0,0.00232,0.00315,57.7,49.6,13,356,0,.,8.29,0.00,0.00
15min,AgWx,beryljct,423,09APR2021:17:30:00,67.1,13.7,61.9,62.0,62.1,63.0,61.5,16,20,12,0.355,14.8,20.5,9.0,7.081,6.3,55,14,10.2,0.00220,0.00329,57.8,49.8,13,280,0,.,8.29,0.00,0.00
15min,AgWx,beryljct,423,09APR2021:17:45:00,66.4,13.64,61.5,61.7,61.8,62.2,61.4,15,20,12,0.291,14.2,19.7,8.4,6.467,7.0,50,14,10.9,0.00228,0.00347,57.9,50.0,13,276,0,.,8.29,0.00,0.00
15min,AgWx,beryljct,423,09APR2021:18:00:00,65.4,13.65,60.8,60.8,61.2,61.6,60.6,16,20,12,0.312,14.9,19.6,8.6,6.949,6.6,45,11,10.0,0.00185,0.00294,57.9,50.1,13,216,0,.,8.29,0.00,0.00
15min,AgWx,beryljct,423,09APR2021:18:15:00,64.2,13.17,59.2,59.7,60.0,60.7,59.5,18,22,15,0.286,16.9,21.1,13.0,5.524,5.8,55,11,8.1,0.00088,0.00116,57.8,50.3,13,162,0,.,8.29,0.00,0.00
15min,AgWx,beryljct,423,09APR2021:18:30:00,62.6,13.11,58.6,58.1,58.7,59.8,57.7,19,21,17,0.291,16.3,18.6,14.0,4.406,5.0,53,5.9,6.9,0.00069,0.00094,57.7,50.5,13,113,0,.,8.30,0.00,0.00
15min,AgWx,beryljct,423,09APR2021:18:45:00,60.6,13.07,58.7,58.7,58.4,58.8,57.9,14,19,11,0.193,9.8,16.6,5.2,3.135,3.6,43,3.3,4.6,0.00044,0.00065,57.5,50.6,13,65,0,.,8.30,0.00,0.00
15min,AgWx,beryljct,423,09APR2021:19:00:00,58.7,13.02,54.0,55.8,57.9,58.7,55.8,12,18,11,0.279,6.3,13.4,4.4,2.105,2.7,21,13,3.5,0.00018,0.00030,57.3,50.8,13,16,0,.,8.30,0.00,0.00
15min,AgWx,beryljct,423,09APR2021:19:15:00,56.2,13,50.7,51.1,53.0,55.6,51.1,21,27,17,0.306,13.9,19.0,9.6,0.197,1.7,15,15,2.5,-0.00004,-0.00002,57.0,50.9,13,5,0,.,8.30,0.00,0.00
15min,AgWx,beryljct,423,09APR2021:19:30:00,53.7,12.98,52.9,52.6,52.0,53.0,51.0,19,24,16,0.238,10.3,15.4,7.5,1.622,1.0,334,22,2.0,-0.00020,-0.00026,56.7,51.0,13,1,0,.,8.30,0.00,0.00
15min,AgWx,beryljct,423,09APR2021:19:45:00,51.9,12.97,52.9,52.4,52.5,52.9,52.2,17,18,16,0.225,8.9,10.3,8.2,2.258,1.8,314,12,2.9,-0.00003,0.00000,56.3,51.2,13,0,0,.,8.30,0.00,0.00
15min,AgWx,beryljct,423,09APR2021:20:00:00,50.5,12.96,49.6,49.6,51.0,52.7,49.0,20,25,16,0.257,10.7,15.1,8.1,2.258,2.0,337,7.9,3.2,-0.00001,0.00004,55.9,51.2,13,0,0,.,8.31,0.00,0.00
15min,AgWx,beryljct,423,09APR2021:20:15:00,49.1,12.94,49.4,50.1,50.4,50.9,49.5,18,21,16,0.232,8.2,11.3,6.8,1.622,1.7,357,9.3,2.7,-0.00005,-0.00002,55.6,51.4,13,0,0,.,8.30,0.00,0.00
15min,AgWx,beryljct,423,09APR2021:20:30:00,48.1,12.94,48.6,48.6,49.6,50.4,48.6,18,19,17,0.211,7.5,9.3,6.4,1.381,1.3,29,6.6,2.4,-0.00013,-0.00015,55.2,51.4,13,0,0,.,8.30,0.00,0.00
15min,AgWx,beryljct,423,09APR2021:20:45:00,47.1,12.93,44.6,45.2,46.8,48.6,45.1,22,27,17,0.279,9.6,13.4,6.1,3.42,3.3,61,13,5.1,0.00016,0.00026,54.8,51.5,13,0,0,.,8.31,0.00,0.00
15min,AgWx,beryljct,423,09APR2021:21:00:00,45.9,12.92,44.4,44.9,44.4,45.2,43.9,26,33,23,0.239,11.4,16.6,9.8,1.008,1.1,18,31,3.9,-0.00014,-0.00017,54.4,51.5,13,0,0,.,8.31,0.00,0.00
15min,AgWx,beryljct,423,09APR2021:21:15:00,44.9,12.9,47.0,46.4,45.6,46.4,44.8,24,25,23,0.246,10.5,11.5,9.6,0.263,0.4,311,2.8,1.6,-0.00029,-0.00042,54.0,51.6,13,0,0,.,8.31,0.00,0.00
15min,AgWx,beryljct,423,09APR2021:21:30:00,44.1,12.91,47.1,45.5,45.9,46.7,44.5,24,28,22,0.262,11.1,13.5,9.7,1.491,0.5,280,24,2.3,-0.00026,-0.00038,53.6,51.6,13,0,0,.,8.31,0.00,0.00
15min,AgWx,beryljct,423,09APR2021:21:45:00,43.6,12.9,43.8,44.2,45.1,47.5,43.0,28,35,22,0.309,13.6,17.5,10.2,1.052,0.7,274,16,2.1,-0.00022,-0.00031,53.3,51.6,13,0,0,.,8.31,0.00,0.00
15min,AgWx,beryljct,423,09APR2021:22:00:00,43.2,12.89,47.7,47.3,46.1,47.3,43.7,24,32,21,0.238,11.5,16.0,9.4,1.973,1.6,268,7.6,2.3,-0.00007,-0.00006,52.9,51.6,13,0,0,.,8.31,0.00,0.00
15min,AgWx,beryljct,423,09APR2021:22:15:00,43.0,12.87,40.1,47.0,47.0,48.0,46.0,21,25,19,0.274,9.2,13.0,7.4,2.565,2.0,283,14,2.8,-0.00000,0.00004,52.6,51.7,13,0,0,.,8.31,0.00,0.00
15min,AgWx,beryljct,423,09APR2021:22:30:00,42.5,12.87,40.8,43.6,43.4,46.9,39.2,29,40,20,0.271,12.7,17.0,8.0,1.622,3.2,315,6.8,4.2,0.00011,0.00018,52.2,51.6,13,0,0,.,8.31,0.00,0.00
15min,AgWx,beryljct,423,09APR2021:22:45:00,41.4,12.86,41.9,42.9,41.8,43.6,40.2,31,38,26,0.248,13.2,16.5,10.7,3.946,2.6,319,7.6,3.9,0.00004,0.00009,51.8,51.6,13,0,0,.,8.31,0.00,0.00
15min,AgWx,beryljct,423,09APR2021:23:00:00,40.6,12.85,38.9,38.7,40.1,43.3,37.8,32,38,24,0.285,12.7,14.7,9.0,5.327,4.0,315,11,5.7,0.00015,0.00023,51.5,51.6,13,0,0,.,8.31,0.00,0.00
15min,AgWx,beryljct,423,09APR2021:23:15:00,39.5,12.84,35.2,35.1,35.7,39.0,34.4,47,52,34,0.318,17.2,19.0,13.2,0,1.7,318,37,5.8,-0.00007,-0.00008,51.2,51.6,13,0,0,.,8.31,0.00,0.00
15min,AgWx,beryljct,423,09APR2021:23:30:00,38.2,12.84,35.7,34.9,34.8,35.9,33.5,42,51,38,0.267,14.2,17.3,12.0,1.907,1.6,359,34,3.7,-0.00008,-0.00009,50.9,51.5,13,0,0,.,8.31,0.00,0.00
15min,AgWx,beryljct,423,09APR2021:23:45:00,37.0,12.82,28.3,28.2,31.9,35.4,28.1,47,56,37,0.284,13.9,16.1,11.9,2.148,2.6,67,45,4.0,-0.00000,0.00002,50.5,51.5,13,0,0,.,8.32,0.00,0.00
15min,AgWx,bigpiney,439,09APR2021:00:00:00,28.3,12.56,25.6,25.4,25.2,26.2,24.9,73,76,68,0.349,17.9,18.6,17.0,5.415,5.8,333,10,8.1,0.00001,0.00002,31.6,31.7,12,0,0,0.0,0.49,0.00,0.00
15min,AgWx,bigpiney,439,09APR2021:00:15:00,28.6,12.56,25.8,25.5,25.6,25.9,25.3,75,76,74,0.357,18.8,19.1,18.3,7.059,7.3,312,9.3,11.7,0.00002,0.00004,31.6,31.7,12,0,0,0.0,0.49,0.00,0.00
15min,AgWx,bigpiney,439,09APR2021:00:30:00,28.7,12.54,23.6,23.4,24.7,25.5,23.4,78,81,76,0.347,18.9,19.3,18.4,5.393,6.7,305,5.2,8.8,0.00000,0.00001,31.6,31.7,12,0,0,0.0,0.49,0.00,0.00
15min,AgWx,bigpiney,439,09APR2021:00:45:00,28.1,12.54,21.7,22.3,22.9,23.4,22.3,82,82,81,0.333,18.1,18.4,17.5,4.582,4.8,317,9.3,5.7,-0.00004,-0.00003,31.6,31.6,12,0,0,0.0,0.49,0.00,0.00
15min,AgWx,bigpiney,439,09APR2021:01:00:00,27.1,12.53,19.6,19.8,21.2,22.1,19.8,84,85,81,0.309,17.0,17.4,15.8,2.587,4.2,329,11,5.1,-0.00005,-0.00005,31.6,31.8,12,0,0,0.0,0.49,0.00,0.00
15min,AgWx,bigpiney,439,09APR2021:01:15:00,26.0,12.52,22.0,20.5,20.5,21.6,19.6,83,85,80,0.310,16.1,17.0,15.2,3.595,3.7,281,17,7.6,-0.00006,-0.00006,31.6,31.6,12,0,0,0.0,0.49,0.00,0.00
15min,AgWx,bigpiney,439,09APR2021:01:30:00,25.0,12.52,22.6,22.5,22.2,22.8,20.7,77,82,73,0.300,16.1,16.7,15.0,5.59,3.7,297,8.1,6.0,-0.00004,-0.00004,31.6,31.7,12,0,0,0.0,0.49,0.00,0.00
15min,AgWx,bigpiney,439,09APR2021:01:45:00,24.3,12.5,24.4,23.7,22.0,23.7,20.9,72,74,67,0.290,14.3,15.1,13.3,7.651,6.7,286,10,13.3,0.00002,0.00004,31.6,31.7,12,0,0,0.0,0.49,0.00,0.00
15min,AgWx,bigpiney,439,09APR2021:02:00:00,24.1,12.48,22.7,22.5,23.0,23.7,22.5,67,68,66,0.280,13.6,14.2,13.4,10.04,8.7,299,8.5,12.3,0.00007,0.00009,31.6,31.7,12,0,0,0.0,0.49,0.00,0.00
15min,AgWx,bigpiney,439,09APR2021:02:15:00,24.0,12.49,21.4,21.1,21.5,22.5,21.0,70,71,68,0.276,13.2,13.5,13.0,8.42,7.2,282,7.0,9.8,0.00004,0.00005,31.6,31.8,12,0,0,0.0,0.49,0.00,0.00
15min,AgWx,bigpiney,439,09APR2021:02:30:00,23.9,12.48,22.2,22.0,21.4,22.0,20.6,69,71,68,0.273,12.9,13.2,12.6,9.82,9.1,298,11,12.6,0.00006,0.00007,31.6,31.7,12,0,0,0.0,0.49,0.00,0.00
15min,AgWx,bigpiney,439,09APR2021:02:45:00,23.8,12.47,21.8,21.3,21.6,21.9,21.3,68,69,68,0.268,12.7,12.9,12.5,8.18,9.4,290,9.0,11.4,0.00007,0.00008,31.6,31.7,12,0,0,0.0,0.49,0.00,0.00
15min,AgWx,bigpiney,439,09APR2021:03:00:00,23.8,12.45,21.5,21.2,21.4,21.6,21.1,68,69,68,0.270,12.6,12.8,12.4,9.97,9.7,289,6.2,11.7,0.00007,0.00008,31.6,31.7,12,0,0,0.0,0.49,0.00,0.00
15min,AgWx,bigpiney,439,09APR2021:03:15:00,23.7,12.43,20.2,20.3,20.8,21.2,20.3,70,71,69,0.265,12.5,12.7,12.3,6.862,8.9,291,5.9,12.2,0.00005,0.00007,31.6,31.6,12,0,0,0.0,0.49,0.00,0.00
15min,AgWx,bigpiney,439,09APR2021:03:30:00,23.4,12.43,20.4,20.3,20.1,20.8,19.4,70,72,68,0.257,12.0,12.2,11.6,7.388,8.4,281,6.0,11.7,0.00004,0.00006,31.6,31.6,12,0,0,0.0,0.49,0.00,0.00
15min,AgWx,bigpiney,439,09APR2021:03:45:00,23.0,12.41,21.0,20.8,20.6,21.1,20.0,68,69,67,0.257,11.7,12.0,11.4,9.8,9.8,287,6.4,11.7,0.00007,0.00008,31.6,31.7,12,0,0,0.0,0.49,0.00,0.00
15min,AgWx,bigpiney,439,09APR2021:04:00:00,22.8,12.39,19.3,18.9,19.8,20.8,18.9,68,69,67,0.244,10.9,11.5,10.4,10.76,9.2,292,6.4,12.0,0.00006,0.00008,31.6,31.7,12,0,0,0.0,0.49,0.00,0.00
15min,AgWx,bigpiney,439,09APR2021:04:15:00,22.5,12.37,18.7,18.4,18.7,19.2,18.4,69,70,69,0.243,10.4,10.7,10.2,9.34,9.8,296,5.2,11.4,0.00006,0.00007,31.6,31.6,12,0,0,0.0,0.49,0.00,0.00
15min,AgWx,bigpiney,439,09APR2021:04:30:00,22.0,12.36,18.9,18.4,18.0,18.4,17.5,71,72,70,0.245,10.2,10.6,9.9,7.717,8.0,299,7.0,11.2,0.00004,0.00005,31.6,31.7,12,0,0,0.0,0.49,0.00,0.00
15min,AgWx,bigpiney,439,09APR2021:04:45:00,21.5,12.35,19.3,18.9,18.8,19.1,18.4,69,71,68,0.242,10.4,10.6,10.1,5.765,7.6,297,7.7,10.9,0.00004,0.00005,31.6,31.6,12,0,0,0.0,0.49,0.00,0.00
15min,AgWx,bigpiney,439,09APR2021:05:00:00,21.2,12.33,21.0,20.5,19.8,20.5,18.9,66,68,64,0.245,10.3,10.5,10.0,9.32,8.3,286,8.4,14.5,0.00006,0.00007,31.6,31.7,12,0,0,0.0,0.49,0.00,0.00
15min,AgWx,bigpiney,439,09APR2021:05:15:00,21.3,12.32,20.8,20.7,20.6,20.9,20.4,64,64,63,0.241,10.2,10.5,10.0,7.563,8.3,282,7.4,12.2,0.00007,0.00009,31.6,31.7,12,0,0,0.0,0.49,0.00,0.00
15min,AgWx,bigpiney,439,09APR2021:05:30:00,21.5,12.29,19.8,19.8,20.5,20.9,19.8,63,64,62,0.234,9.8,10.1,9.5,6.949,8.3,289,7.1,13.9,0.00007,0.00009,31.6,31.7,12,0,0,0.0,0.49,0.00,0.00
15min,AgWx,bigpiney,439,09APR2021:05:45:00,21.4,12.31,19.4,19.1,19.2,19.8,19.0,65,66,64,0.235,9.5,9.6,9.3,7.059,6.7,295,6.7,8.6,0.00004,0.00006,31.6,31.7,12,2,0,0.0,0.49,0.00,0.00
15min,AgWx,bigpiney,439,09APR2021:06:00:00,21.2,12.31,19.1,18.7,19.1,19.7,18.7,66,67,65,0.234,9.6,9.9,9.4,5.985,6.5,286,11,9.3,0.00005,0.00006,31.6,31.6,12,12,0,0.0,0.49,0.00,0.00
15min,AgWx,bigpiney,439,09APR2021:06:15:00,21.2,12.34,21.2,21.0,20.3,21.0,18.7,64,67,62,0.240,9.9,10.1,9.5,7.432,8.5,288,7.1,10.6,0.00013,0.00033,31.6,31.6,12,42,0,0.0,0.49,0.00,0.00
15min,AgWx,bigpiney,439,09APR2021:06:30:00,21.7,12.37,22.3,22.0,21.5,22.0,21.0,61,62,59,0.240,10.1,10.2,10.0,7.037,8.3,290,5.8,10.6,0.00024,0.00046,31.6,31.8,12,77,0,0.0,0.49,0.00,0.00
15min,AgWx,bigpiney,439,09APR2021:06:45:00,22.6,12.42,23.4,22.3,22.6,23.1,22.0,58,59,57,0.242,10.0,10.4,9.8,6.862,6.6,290,11,9.3,0.00032,0.00054,31.6,31.7,12,117,0,0.0,0.49,0.00,0.00
15min,AgWx,bigpiney,439,09APR2021:07:00:00,23.8,12.52,24.5,23.9,23.4,24.0,22.2,58,60,55,0.250,10.7,11.2,10.0,5.744,5.4,300,13,8.4,0.00043,0.00063,31.6,31.6,12,163,0,0.0,0.49,0.00,0.00
15min,AgWx,bigpiney,439,09APR2021:07:15:00,24.9,12.8,25.8,25.1,24.5,25.1,23.9,56,58,55,0.257,11.2,12.1,10.3,4.538,6.8,287,12,11.1,0.00062,0.00088,31.6,31.6,12,211,0,0.0,0.49,0.00,0.00
15min,AgWx,bigpiney,439,09APR2021:07:30:00,25.9,13.43,26.3,25.6,25.1,25.7,23.5,54,57,51,0.247,10.8,11.9,9.6,7.541,6.2,293,27,9.3,0.00077,0.00104,31.6,31.7,12,261,0,0.0,0.49,0.00,0.00
15min,AgWx,bigpiney,439,09APR2021:07:45:00,26.8,13.84,26.1,26.1,25.8,26.3,25.3,52,54,51,0.243,10.7,11.9,9.8,12.3,8.8,324,12,12.5,0.00099,0.00134,31.6,31.7,12,314,0,0.0,0.49,0.00,0.00
15min,AgWx,bigpiney,439,09APR2021:08:00:00,28.1,14.91,27.6,26.6,26.4,27.0,25.8,50,52,48,0.234,10.0,10.9,9.1,8,9.5,329,10,12.3,0.00118,0.00158,31.6,31.8,12,367,0,0.0,0.49,0.00,0.00
15min,AgWx,bigpiney,439,09APR2021:08:15:00,29.7,14.84,26.6,27.5,27.3,28.1,26.6,47,49,44,0.234,9.5,11.1,8.1,7.322,7.8,322,14,11.4,0.00137,0.00177,31.6,31.7,12,419,0,0.0,0.49,0.00,0.00
15min,AgWx,bigpiney,439,09APR2021:08:30:00,31.3,14.77,28.5,28.1,27.6,28.6,26.9,44,47,40,0.231,8.5,10.7,6.2,7.234,7.7,332,16,11.6,0.00155,0.00198,31.6,31.7,12,470,0,0.0,0.49,0.00,0.00